User: anonymous   Login
Location: Sherrills_Ford_Terrell
(35.6000°N, 80.9830°W)
Time: 00:25:08
(UTC-04:00)
Language:

CZ-4B R/B - Orbit

View from above orbital plane
View from above orbital plane
View from above satellite
View from above satellite

Ground track
Ground track

The orbit data is extracted from the following two-line orbital elements,

1 29093U 06015B   15087.18266252  .00011198  00000-0  35027-3 0  9998
2 29093 097.4955 173.3870 0079978 340.9001 073.0368 15.30165292492916
Epoch (UTC): 28 March 2015 04:23:02
Eccentricity: 0.0079978
inclination: 97.4955°
perigee height: 420 km
apogee height: 530 km
right ascension of ascending node: 173.3870°
argument of perigee: 340.9001°
revolutions per day: 15.30165292
mean anomaly at epoch: 73.0368°
orbit number at epoch: 49291

The dashed part of the orbit path shows where the satellite is in the earth's shadow,  

DLR